KG6SIB Weather Reports


time (UTC)temp
C
wind
direction
speed
KPH
gust
KPH
rain 1hr
cm
rain 24hr
cm
rain mn
cm
humidity
%
barometer
mb
20260506104126 2 32 4.8 8.0 0.00 0.89 0.00 92 1016.4
20260506103625 2 19 4.8 9.7 0.00 0.89 0.00 92 1016.3
20260506103125 2 42 8.0 9.7 0.00 0.89 0.00 92 1016.2
20260506102625 2 50 3.2 6.4 0.00 0.91 0.00 92 1016.2
20260506102125 2 56 4.8 8.0 0.00 0.94 0.00 92 1016.2
20260506101625 2 65 3.2 8.0 0.00 0.94 0.00 92 1016.1
20260506101125 2 62 4.8 8.0 0.00 0.94 0.00 92 1016.1
20260506100625 2 44 6.4 6.4 0.00 0.94 0.00 92 1016.0
20260506100125 2 30 3.2 6.4 0.00 0.94 0.00 91 1016.1
20260506095625 2 26 4.8 6.4 0.00 0.97 0.00 91 1015.8
20260506095125 2 36 4.8 6.4 0.00 0.97 0.00 91 1015.9
20260506094125 2 34 6.4 6.4 0.00 0.99 0.00 91 1015.8
20260506093624 2 37 3.2 6.4 0.00 0.99 0.00 91 1015.9
20260506092625 3 22 4.8 6.4 0.00 1.04 0.00 91 1016.0
20260506092125 3 21 3.2 6.4 0.00 1.04 0.00 91 1016.1
20260506091124 3 15 6.4 8.0 0.00 1.09 0.00 91 1016.1
20260506090624 3 19 6.4 8.0 0.00 1.09 0.00 91 1016.1
20260506090125 3 163 1.6 8.0 0.00 1.12 0.00 91 1016.1
20260506085625 3 194 1.6 4.8 0.00 1.12 0.00 91 1015.7
20260506085124 3 198 1.6 4.8 0.00 1.14 0.00 91 1015.8
20260506084624 3 201 1.6 4.8 0.00 1.14 0.00 90 1015.9
20260506084124 4 232 0.0 0.0 0.00 1.14 0.00 91 1015.9
20260506083624 4 232 0.0 0.0 0.00 1.14 0.00 91 1016.0
20260506082624 5 232 0.0 0.0 0.00 1.14 0.00 91 1016.3
20260506082124 5 232 0.0 0.0 0.00 1.14 0.00 91 1016.4
20260506081624 5 232 0.0 0.0 0.00 1.14 0.00 91 1016.6
20260506081124 5 232 0.0 0.0 0.00 1.14 0.00 91 1016.5
20260506080624 5 232 0.0 0.0 0.00 1.14 0.00 91 1016.6
20260506080124 5 232 0.0 0.0 0.00 1.14 0.00 91 1016.6
20260506073123 6 232 0.0 0.0 0.00 1.14 0.00 91 1016.8
20260506072624 7 232 0.0 1.6 0.00 1.14 0.00 92 1016.9
20260506071623 7 232 0.0 4.8 0.00 1.14 0.00 92 1017.0
20260506071123 7 232 0.0 8.0 0.00 1.14 0.00 92 1017.0
20260506070623 7 232 3.2 8.0 0.00 1.14 0.00 92 1017.0
20260506070154 7 237 3.2 4.8 0.00 1.14 0.00 91 1016.9
20260506062123 7 238 0.0 4.8 0.00 1.14 1.14 91 1016.5
20260506061623 7 238 0.0 6.4 0.00 1.14 1.14 91 1016.5
20260506061122 7 238 3.2 6.4 0.00 1.14 1.14 91 1016.4
20260506060623 7 238 3.2 6.4 0.00 1.14 1.14 91 1016.6
20260506060123 7 238 1.6 6.4 0.00 1.14 1.14 91 1016.8
20260506051122 7 240 0.0 8.0 0.00 1.14 1.14 90 1016.7
20260506050622 7 243 0.0 8.0 0.00 1.14 1.14 90 1016.7
20260506050152 7 246 4.8 8.0 0.00 1.14 1.14 90 1016.7
20260506044622 7 236 1.6 9.7 0.00 1.14 1.14 89 1016.3
20260506044121 7 235 1.6 8.0 0.00 1.14 1.14 89 1016.3
20260506043622 7 242 1.6 12.9 0.00 1.14 1.14 88 1016.1
20260506042622 7 240 6.4 8.0 0.00 1.14 1.14 88 1016.1
20260506041621 7 229 0.0 11.3 0.00 1.14 1.14 88 1016.0
20260506040622 7 239 0.0 4.8 0.00 1.14 1.14 87 1015.9
20260506040152 7 238 3.2 4.8 0.00 1.14 1.14 87 1015.8
20260506035652 7 240 0.0 6.4 0.00 1.14 1.14 87 1015.8
20260506034651 8 225 0.0 9.7 0.00 1.14 1.14 87 1015.6
20260506034151 8 223 4.8 9.7 0.00 1.14 1.14 87 1015.5
20260506033651 8 242 0.0 8.0 0.00 1.14 1.14 86 1015.5
20260506033151 8 244 0.0 8.0 0.00 1.14 1.14 86 1015.4
20260506032151 8 240 1.6 9.7 0.00 1.14 1.14 86 1015.3
20260506031651 8 240 3.2 9.7 0.00 1.14 1.14 86 1015.2
20260506031151 8 240 6.4 12.9 0.00 1.14 1.14 86 1015.2
20260506025650 8 238 9.7 14.5 0.00 1.14 1.14 85 1014.8
20260506025150 8 217 6.4 14.5 0.00 1.14 1.14 85 1014.7
20260506024151 8 253 8.0 14.5 0.00 1.14 1.14 84 1014.7
20260506023650 8 242 6.4 16.1 0.00 1.14 1.14 84 1014.6
20260506023150 8 234 0.0 16.1 0.00 1.14 1.14 83 1014.5
20260506022150 8 231 4.8 16.1 0.00 1.14 1.14 83 1014.5
20260506021650 8 228 4.8 16.1 0.00 1.14 1.14 82 1014.4
20260506020650 8 240 9.7 16.1 0.00 1.14 1.14 81 1014.4
20260506015650 9 225 4.8 12.9 0.00 1.14 1.14 80 1014.3
20260506015150 9 231 6.4 17.7 0.00 1.14 1.14 80 1014.3
20260506014650 9 228 4.8 17.7 0.00 1.14 1.14 80 1014.3
20260506014149 9 229 11.3 16.1 0.00 1.14 1.14 79 1014.2
20260506013650 9 219 3.2 19.3 0.00 1.14 1.14 78 1014.2
20260506013150 9 219 9.7 19.3 0.00 1.14 1.14 78 1014.2
20260506012649 9 243 9.7 14.5 0.00 1.14 1.14 77 1014.2
20260506012150 10 221 11.3 22.5 0.00 1.14 1.14 75 1014.2
20260506011649 10 234 1.6 22.5 0.00 1.14 1.14 74 1014.1
20260506011149 10 230 9.7 20.9 0.00 1.14 1.14 74 1014.3
20260506010650 10 225 12.9 22.5 0.00 1.14 1.14 75 1014.2
20260506005649 10 236 4.8 19.3 0.00 1.14 1.14 74 1013.9
20260506005149 10 197 8.0 19.3 0.00 1.14 1.14 74 1013.9
20260506004149 10 216 12.9 20.9 0.00 1.14 1.14 71 1014.2
20260506003649 10 215 8.0 22.5 0.00 1.14 1.14 72 1014.2
20260506003149 11 226 9.7 24.1 0.00 1.14 1.14 70 1014.2
20260506002649 11 229 11.3 27.4 0.00 1.14 1.14 70 1014.4
20260506002149 11 207 3.2 27.4 0.00 1.14 1.14 69 1014.3
20260506001648 11 215 4.8 20.9 0.00 1.14 1.14 71 1013.8
20260506001148 10 247 6.4 20.9 0.00 1.14 1.14 74 1013.9
20260506000648 10 210 8.0 20.9 0.00 1.14 1.14 73 1014.1
20260506000148 11 219 16.1 24.1 0.00 1.14 1.14 72 1013.9
20260505235648 11 225 9.7 29.0 0.00 1.14 1.14 71 1014.1
20260505235148 11 251 8.0 29.0 0.00 1.14 1.14 69 1014.0
20260505234649 11 263 20.9 25.7 0.00 1.14 1.14 70 1014.1
20260505233649 11 237 16.1 25.7 0.00 1.14 1.14 71 1014.1
20260505232648 12 244 11.3 27.4 0.00 1.14 1.14 68 1014.3
20260505232148 12 230 11.3 22.5 0.00 1.14 1.14 73 1014.3
20260505231648 11 210 9.7 22.5 0.00 1.14 1.14 71 1014.1
20260505231148 11 242 16.1 24.1 0.00 1.14 1.14 68 1014.2
20260505230648 12 201 11.3 30.6 0.00 1.14 1.14 66 1014.4
20260505230148 13 203 11.3 30.6 0.00 1.14 1.14 66 1014.7
20260505225147 12 204 8.0 24.1 0.00 1.14 1.14 74 1014.4
20260505224647 11 221 3.2 24.1 0.00 1.14 1.14 71 1014.3
20260505224147 12 201 14.5 25.7 0.00 1.14 1.14 67 1014.6
20260505223647 13 217 14.5 27.4 0.00 1.14 1.14 68 1014.8
20260505223147 13 237 17.7 27.4 0.00 1.14 1.14 71 1014.9
20260505222647 12 240 14.5 25.7 0.00 1.14 1.14 72 1014.7
20260505222147 12 229 17.7 25.7 0.00 1.14 1.14 70 1014.7
20260505221647 12 190 6.4 22.5 0.00 1.14 1.14 73 1014.8
20260505220647 12 269 14.5 24.1 0.00 1.14 1.14 77 1014.9
20260505220147 12 225 6.4 24.1 0.00 1.14 1.14 77 1014.9
20260505215647 12 227 6.4 24.1 0.00 1.14 1.14 77 1014.7
20260505215147 12 242 12.9 24.1 0.00 1.14 1.14 79 1014.7
20260505214647 11 224 6.4 24.1 0.00 1.14 1.14 82 1014.8
20260505214147 11 246 11.3 27.4 0.00 1.14 1.14 79 1014.8
20260505212646 11 217 6.4 22.5 0.00 1.14 1.14 84 1014.7
20260505212147 11 240 12.9 22.5 0.00 1.14 1.14 88 1014.8
20260505211147 10 232 4.8 20.9 0.00 1.14 1.14 88 1014.5
20260505210646 10 213 11.3 24.1 0.00 1.14 1.14 91 1014.6
20260505210146 9 215 12.9 24.1 0.00 1.14 1.14 91 1014.6
20260505205646 9 214 12.9 22.5 0.00 1.14 1.14 92 1014.4
20260505205146 9 243 12.9 19.3 0.00 1.14 1.14 94 1014.3
20260505204646 9 238 8.0 19.3 0.00 1.14 1.14 94 1014.4
20260505204146 9 181 4.8 19.3 0.00 1.14 1.14 94 1014.4
20260505203646 8 226 11.3 27.4 0.00 1.14 1.14 94 1014.5
20260505203147 9 194 14.5 27.4 0.00 1.14 1.14 95 1014.4
20260505202646 9 226 4.8 27.4 0.00 1.14 1.14 95 1014.4
20260505202146 9 236 6.4 17.7 0.00 1.14 1.14 95 1014.3
20260505201646 8 234 11.3 17.7 0.00 1.14 1.14 95 1014.4
20260505201146 8 232 4.8 17.7 0.00 1.14 1.14 95 1014.5
20260505200646 8 236 8.0 17.7 0.00 1.14 1.14 95 1014.2
20260505200146 8 183 4.8 17.7 0.00 1.14 1.14 95 1014.2
20260505195646 7 229 9.7 19.3 0.00 1.14 1.14 95 1014.4
20260505195146 8 244 17.7 19.3 0.00 1.14 1.14 95 1014.5
20260505194646 8 222 3.2 6.4 0.00 1.14 1.14 95 1014.5
20260505194146 8 210 1.6 11.3 0.00 1.14 1.14 95 1014.5
20260505193646 7 231 1.6 11.3 0.03 1.14 1.14 95 1014.3
20260505192646 7 252 3.2 12.9 0.08 1.14 1.14 95 1014.6
20260505192146 7 236 4.8 14.5 0.18 1.14 1.14 95 1014.5
20260505191651 7 243 4.8 14.5 0.20 1.14 1.14 95 1014.5
20260505191145 7 242 4.8 14.5 0.20 1.14 1.14 95 1014.4
20260505185645 7 238 4.8 12.9 0.20 1.14 1.14 95 1014.5
20260505184645 7 242 6.4 19.3 0.23 1.14 1.14 95 1014.5
20260505184146 7 243 1.6 19.3 0.25 1.14 1.14 95 1014.5
20260505182645 7 205 3.2 11.3 0.18 1.07 1.07 95 1014.4
20260505182145 7 234 4.8 8.0 0.08 0.97 0.97 95 1014.3
20260505181645 7 178 1.6 9.7 0.05 0.94 0.94 95 1014.1
20260505181145 7 170 8.0 14.5 0.05 0.94 0.94 95 1014.2
20260505175645 7 223 9.7 19.3 0.08 0.94 0.94 95 1014.1
20260505173644 7 240 12.9 17.7 0.08 0.89 0.89 95 1013.8
20260505173144 7 234 8.0 17.7 0.08 0.89 0.89 95 1013.9
20260505172644 7 243 3.2 19.3 0.08 0.89 0.89 95 1013.9
20260505171644 7 230 19.3 20.9 0.10 0.89 0.89 95 1013.7
20260505171144 7 246 14.5 20.9 0.13 0.89 0.89 95 1013.7
20260505170644 7 217 11.3 20.9 0.15 0.89 0.89 95 1013.6
20260505170144 7 238 3.2 14.5 0.20 0.86 0.86 95 1013.6
20260505165644 7 228 9.7 14.5 0.23 0.86 0.86 95 1013.4
20260505165144 7 242 4.8 14.5 0.25 0.86 0.86 95 1013.4
20260505164644 7 241 9.7 17.7 0.23 0.84 0.84 95 1013.3
20260505164144 7 242 8.0 17.7 0.25 0.84 0.84 95 1013.3
20260505163644 7 249 12.9 16.1 0.23 0.81 0.81 95 1013.1
20260505163144 7 238 6.4 19.3 0.23 0.81 0.81 95 1013.2
20260505162643 7 240 12.9 19.3 0.23 0.81 0.81 94 1013.2
20260505162144 7 240 14.5 24.1 0.20 0.79 0.79 95 1013.1
20260505161643 7 225 6.4 24.1 0.20 0.79 0.79 95 1013.0
20260505161144 7 249 8.0 25.7 0.18 0.76 0.76 94 1012.9
20260505160644 7 233 0.0 25.7 0.15 0.74 0.74 94 1012.9
20260505160144 7 219 8.0 20.9 0.08 0.66 0.66 95 1012.7
20260505153144 7 252 4.8 16.1 0.00 0.58 0.58 95 1012.8
20260505152643 7 233 3.2 11.3 0.00 0.58 0.58 95 1012.8
20260505151643 7 229 3.2 11.3 0.00 0.58 0.58 95 1012.8
20260505151143 7 227 3.2 14.5 0.00 0.58 0.58 94 1012.7
20260505150643 7 250 1.6 14.5 0.03 0.58 0.58 94 1012.6
20260505150142 7 234 3.2 16.1 0.05 0.58 0.58 95 1012.6
20260505140642 7 213 11.3 17.7 0.10 0.56 0.56 94 1012.3
20260505140142 7 239 9.7 19.3 0.08 0.53 0.53 94 1012.3
20260505124641 7 227 16.1 24.1 0.18 0.46 0.46 94 1012.2
20260505124142 7 202 16.1 22.5 0.18 0.46 0.46 94 1012.3
20260505123641 7 243 9.7 22.5 0.13 0.41 0.41 94 1012.1
20260505122641 7 227 1.6 19.3 0.13 0.41 0.41 94 1012.2
20260505122141 7 242 4.8 22.5 0.13 0.41 0.41 94 1012.2
20260505121641 7 245 12.9 24.1 0.13 0.41 0.41 94 1012.1
20260505121141 7 228 12.9 24.1 0.13 0.41 0.41 94 1012.1
20260505120641 7 242 12.9 20.9 0.13 0.38 0.38 94 1012.1
20260505120141 7 231 4.8 20.9 0.10 0.36 0.36 94 1012.0
20260505115640 7 263 9.7 20.9 0.05 0.30 0.30 94 1012.1
20260505115141 7 219 16.1 20.9 0.03 0.28 0.28 94 1012.1
20260505114641 7 253 3.2 17.7 0.03 0.28 0.28 94 1012.1
20260505114140 7 223 11.3 19.3 0.03 0.28 0.28 94 1012.2
20260505113640 7 242 8.0 19.3 0.03 0.28 0.28 93 1012.2
20260505113141 7 248 11.3 19.3 0.03 0.28 0.28 94 1012.2
20260505112141 7 227 1.6 14.5 0.08 0.28 0.28 93 1012.3
20260505111640 7 239 12.9 14.5 0.08 0.28 0.28 93 1012.4
20260505111140 7 236 8.0 17.7 0.08 0.28 0.28 93 1012.5
20260505110140 7 221 8.0 24.1 0.05 0.25 0.25 93 1012.4